Location: Newark
(52.5694°N, 1.3190°W)
Time: 21:02:39
(UTC+00:00)

N. Korean satellite - Pass Details

Date: 28 January 2020
Orbit: 456 x 505 km, 97.2° (Epoch: 23 February)

Event Time Altitude Azimuth Distance (km) Brightness Sun altitude
Rises 05:57:43 0° 15° (NNE) 2,544 10.3 -17.5°
Reaches altitude 10° 05:59:47 10° 17° (NNE) 1,668 9.4 -17.2°
Maximum altitude 06:03:22 72° 102° (ESE) 518 6.8 -16.7°
Drops below altitude 10° 06:06:59 10° 188° (S) 1,682 9.3 -16.1°
Sets 06:09:04 0° 190° (S) 2,567 10.2 -15.8°
